Claresholm, Alberta

6:07 AM MDT on September 26, 2017 (GMT -0600)
Claresholm

Weather History for CWDK - January, 2013

Change the Weather History Date:

Tuesday, January 1, 2013

  Actual Average Record
Temperature  
Mean Temperature 16 °F -  
Max Temperature 32 °F - - ()
Min Temperature 1 °F - - ()
Degree Days  
Heating Degree Days 48    
Moisture  
Dew Point 13 °F    
Average Humidity 75    
Maximum Humidity 98    
Minimum Humidity 49    
Precipitation  
Precipitation 0.00 in - - ()
Sea Level Pressure  
Sea Level Pressure 30.28 in    
Wind  
Wind Speed 5 mph ()    
Max Wind Speed 15 mph    
Max Gust Speed 22 mph    
T = Trace of Precipitation, MM = Missing Value Source: Averaged Metar Reports

Daily Weather History Graph

Daily Weather History Graph

Search for Another Location

Airport or City:

Trip Planner

Search our weather history database for the weather conditions in past years. The results will help you decide how hot, cold, wet, or windy it might be!

Date:

Astronomy

Jan. 01, 2013 Rise Set
Actual Time 8:33 AM MST 4:43 PM MST
Civil Twilight 7:54 AM MST 5:21 PM MST
Nautical Twilight 7:13 AM MST 6:03 PM MST
Astronomical Twilight 6:34 AM MST 6:42 PM MST
Moon 9:48 PM MST (1/1) 10:20 AM MST (1/1)
Length of Visible Light 9h 27m
Length of Day
8h 10m
Waning Gibbous, 83% of the Moon is Illuminated
Jan 1
Waning Gibbous
Jan 4
Last Quarter
Jan 11
New
Jan 18
First Quarter
Jan 26
Full

Hourly Weather History & Observations

Time (MST) Temp. Windchill Dew Point Humidity Pressure Visibility Wind Dir Wind Speed Gust Speed Precip Events Conditions
12:00 AM 21.2 °F 13.6 °F 17.2 °F 85% 30.13 in - South 5.8 mph - N/A   Unknown
1:00 AM 20.3 °F 13.8 °F 18.5 °F 93% 30.11 in - SSE 4.6 mph - N/A   Unknown
2:00 AM 23.4 °F - 19.4 °F 85% 30.09 in - SE 2.3 mph - N/A   Unknown
3:00 AM 17.4 °F 10.4 °F 14.9 °F 90% 30.09 in - East 4.6 mph - N/A   Unknown
4:00 AM 11.8 °F 3.9 °F 11.3 °F 98% 30.11 in - NNW 4.6 mph - N/A   Unknown
5:00 AM 31 °F - 19 °F 49% 30.10 in - North 11.5 mph - -  
5:00 AM 30.7 °F 21.4 °F 19.0 °F 62% 30.10 in - North 11.5 mph 18.4 mph N/A   Unknown
6:00 AM 29.7 °F 18.6 °F 24.4 °F 81% 30.19 in - NNW 15.0 mph 21.9 mph N/A   Unknown
7:00 AM 27.1 °F 19.7 °F 24.6 °F 90% 30.24 in - WNW 6.9 mph - N/A   Unknown
8:00 AM 22.5 °F 15.1 °F 19.6 °F 89% 30.27 in - West 5.8 mph - N/A   Unknown
9:00 AM 21.2 °F - 18.1 °F 88% 30.30 in - NNW 2.3 mph - N/A   Unknown
10:00 AM 20.5 °F - 16.7 °F 85% 30.32 in - WNW 1.2 mph - N/A   Unknown
11:00 AM 22 °F - 14 °F 61% 30.34 in - SE 3.5 mph - -  
11:00 AM 22.1 °F 17.4 °F 14.2 °F 72% 30.34 in - SE 3.5 mph - N/A   Unknown
12:00 PM 27.3 °F - 14.9 °F 60% 30.33 in - SE 2.3 mph - N/A   Unknown
1:00 PM 29.8 °F 24.9 °F 16.3 °F 57% 30.30 in - ESE 4.6 mph - N/A   Unknown
2:00 PM 31.8 °F - 17.1 °F 55% 30.32 in - South 2.3 mph - N/A   Unknown
3:00 PM 29.5 °F - 16.3 °F 58% 30.35 in - South 2.3 mph - N/A   Unknown
4:00 PM 25.2 °F - 17.6 °F 73% 30.33 in - SE 2.3 mph - N/A   Unknown
5:00 PM 19 °F - 11 °F 61% 30.35 in - North 2.3 mph - -  
5:00 PM 18.9 °F - 11.3 °F 72% 30.35 in - North 2.3 mph - N/A   Unknown
6:00 PM 11.1 °F - 7.3 °F 85% 30.38 in - North 2.3 mph - N/A   Unknown
7:00 PM 9.0 °F -0.9 °F 6.1 °F 88% 30.41 in - NNW 5.8 mph - N/A   Unknown
8:00 PM 11.7 °F 2.3 °F 4.8 °F 74% 30.42 in - North 5.8 mph - N/A   Unknown
9:00 PM 8.2 °F -0.3 °F 3.6 °F 81% 30.43 in - North 4.6 mph - N/A   Unknown
10:00 PM 1.8 °F - -3.3 °F 79% 30.44 in - North 2.3 mph - N/A   Unknown
11:00 PM 8 °F - 2 °F 65% 30.41 in - NNW 4.6 mph - -  
11:00 PM 8.4 °F -0.1 °F 1.8 °F 74% 30.41 in - NNW 4.6 mph - N/A   Unknown